Weather History for Louisburg, NC

Change the Weather History Date:

Wednesday, August 27, 2014

  Actual Average (KRDU) Record (KRDU)
Temperature  
Mean Temperature 68 °F 77 °F  
Max Temperature 82 °F 87 °F 97 °F (1948)
Min Temperature 53 °F 67 °F 53 °F (1945)
Degree Days  
Heating Degree Days 0 0  
Month to date heating degree days 0  
Since 1 June heating degree days 4  
Since 1 July heating degree days 0  
Cooling Degree Days 2 12  
Month to date cooling degree days 372  
Year to date cooling degree days 1394  
Since 1 June cooling degree days 1185  
Growing Degree Days 18 (Base 50)    
Moisture  
Dew Point 61 °F    
Average Humidity 79    
Maximum Humidity 100    
Minimum Humidity 48    
Precipitation  
Precipitation 0.00 in 0.15 in 4.16 in (1887)
Month to date precipitation 3.70  
Year to date precipitation 28.98  
Sea Level Pressure  
Sea Level Pressure 30.04 in    
Wind  
Wind Speed 2 mph (North)    
Max Wind Speed 12 mph    
Max Gust Speed -    
Visibility 9 miles    
Events      
T = Trace of Precipitation, MM = Missing Value Source: NWS Daily Summary

Daily Weather History Graph

Daily Weather History Graph

Search for Another Location

Airport:

Trip Planner

Search our weather history database for the weather conditions in past years. The results will help you decide how hot, cold, wet, or windy it might be!

Date:

Astronomy

Aug. 27, 2014 Rise Set
Actual Time 6:41 AM EDT 7:47 PM EDT
Civil Twilight 6:14 AM EDT 8:14 PM EDT
Nautical Twilight 5:43 AM EDT 8:45 PM EDT
Astronomical Twilight 5:10 AM EDT 9:18 PM EDT
Moon 8:30 AM EDT (8/27) 8:44 PM EDT (8/27)
Length of Visible Light 13h 59m
Length of Day
13h 06m
Waxing Crescent, 4% of the Moon is Illuminated
Aug 27
Waxing Crescent
Sep 2
First Quarter
Sep 8
Full
Sep 15
Last Quarter
Sep 24
New

Hourly Weather History & Observations

Time (EDT) Temp. Heat Index Dew Point Humidity Pressure Visibility Wind Dir Wind Speed Gust Speed Precip Events Conditions
12:15 AM 60.8 °F - 60.8 °F 100% 30.09 in 10.0 mi Calm Calm - N/A   Clear
12:35 AM 60.8 °F - 60.8 °F 100% 30.09 in 7.0 mi Calm Calm - N/A   Clear
12:55 AM 60.8 °F - 59.0 °F 94% 30.09 in 7.0 mi Calm Calm - N/A   Clear
1:15 AM 59.0 °F - 59.0 °F 100% 30.09 in 7.0 mi Calm Calm - N/A   Clear
1:35 AM 59.0 °F - 59.0 °F 100% 30.08 in 7.0 mi Calm Calm - N/A   Clear
1:55 AM 59.0 °F - 57.2 °F 94% 30.08 in 7.0 mi Calm Calm - N/A   Clear
2:15 AM 57.2 °F - 57.2 °F 100% 30.07 in 10.0 mi Calm Calm - N/A   Clear
2:35 AM 57.2 °F - 55.4 °F 94% 30.07 in 7.0 mi Calm Calm - N/A   Clear
2:55 AM 55.4 °F - 55.4 °F 100% 30.07 in 10.0 mi Calm Calm - N/A   Clear
3:15 AM 55.4 °F - 55.4 °F 100% 30.07 in 10.0 mi Calm Calm - N/A   Clear
3:35 AM 55.4 °F - 53.6 °F 94% 30.06 in 10.0 mi Calm Calm - N/A   Clear
3:55 AM 55.4 °F - 55.4 °F 100% 30.06 in 1.5 mi Calm Calm - N/A   Mist
4:15 AM 55.4 °F - 55.4 °F 100% 30.06 in 7.0 mi Calm Calm - N/A   Clear
4:35 AM 57.2 °F - 57.2 °F 100% 30.06 in 10.0 mi Calm Calm - N/A   Clear
4:50 AM 55.4 °F - 55.4 °F 100% 30.06 in 7.0 mi Calm Calm - N/A   Clear
5:55 AM 55.4 °F - 55.4 °F 100% 30.06 in 7.0 mi Calm Calm - N/A   Clear
6:40 AM 55.4 °F - 53.6 °F 94% 30.07 in 7.0 mi Calm Calm - N/A   Clear
6:55 AM 53.6 °F - 53.6 °F 100% 30.08 in 4.0 mi Calm Calm - N/A   Clear
7:15 AM 55.4 °F - 55.4 °F 100% 30.08 in 5.0 mi Calm Calm - N/A   Clear
7:35 AM 57.2 °F - 57.2 °F 100% 30.08 in 7.0 mi Calm Calm - N/A   Clear
7:55 AM 59.0 °F - 59.0 °F 100% 30.08 in 7.0 mi Calm Calm - N/A   Clear
8:15 AM 60.8 °F - 59.0 °F 94% 30.08 in 10.0 mi Calm Calm - N/A   Clear
8:35 AM 62.6 °F - 60.8 °F 94% 30.08 in 10.0 mi Calm Calm - N/A   Clear
8:55 AM 64.4 °F - 60.8 °F 88% 30.08 in 10.0 mi North 3.5 mph - N/A   Clear
9:15 AM 68.0 °F - 62.6 °F 83% 30.08 in 10.0 mi Calm Calm - N/A   Clear
9:35 AM 69.8 °F - 62.6 °F 78% 30.08 in 10.0 mi North 4.6 mph - N/A   Clear
9:55 AM 71.6 °F - 62.6 °F 73% 30.08 in 10.0 mi North 4.6 mph - N/A   Clear
10:15 AM 71.6 °F - 62.6 °F 73% 30.08 in 10.0 mi NNE 6.9 mph - N/A   Clear
10:35 AM 73.4 °F - 62.6 °F 69% 30.08 in 10.0 mi North 5.8 mph - N/A   Clear
10:55 AM 75.2 °F - 62.6 °F 65% 30.08 in 10.0 mi NNE 8.1 mph - N/A   Clear
11:15 AM 77.0 °F - 60.8 °F 57% 30.08 in 10.0 mi NE 11.5 mph - N/A   Clear
11:35 AM 77.0 °F - 60.8 °F 57% 30.08 in 10.0 mi North 8.1 mph - N/A   Clear
11:55 AM 78.8 °F - 60.8 °F 54% 30.08 in 10.0 mi North 8.1 mph - N/A   Clear
12:15 PM 78.8 °F - 60.8 °F 54% 30.07 in 10.0 mi North 6.9 mph - N/A   Clear
12:35 PM 78.8 °F - 62.6 °F 57% 30.06 in 10.0 mi NNE 5.8 mph - N/A   Clear
12:55 PM 80.6 °F 81.8 °F 62.6 °F 54% 30.06 in 10.0 mi NE 6.9 mph - N/A   Clear
1:15 PM 80.6 °F 81.8 °F 62.6 °F 54% 30.05 in 10.0 mi NE 9.2 mph - N/A   Clear
1:35 PM 80.6 °F 81.5 °F 60.8 °F 51% 30.04 in 10.0 mi NNW 3.5 mph - N/A   Clear
1:55 PM 80.6 °F 81.8 °F 62.6 °F 54% 30.03 in 10.0 mi North 8.1 mph - N/A   Clear
2:15 PM 80.6 °F 81.5 °F 60.8 °F 51% 30.03 in 10.0 mi NE 6.9 mph - N/A   Clear
2:35 PM 80.6 °F 81.5 °F 60.8 °F 51% 30.03 in 10.0 mi North 5.8 mph - N/A   Clear
2:55 PM 82.4 °F 82.9 °F 60.8 °F 48% 30.02 in 10.0 mi North 6.9 mph - N/A   Clear
3:15 PM 82.4 °F 83.4 °F 62.6 °F 51% 30.01 in 10.0 mi North 8.1 mph - N/A   Clear
3:35 PM 82.4 °F 83.4 °F 62.6 °F 51% 30.00 in 10.0 mi North 8.1 mph - N/A   Clear
3:55 PM 82.4 °F 83.4 °F 62.6 °F 51% 30.00 in 10.0 mi Calm Calm - N/A   Clear
4:15 PM 82.4 °F 82.9 °F 60.8 °F 48% 30.00 in 10.0 mi North 6.9 mph - N/A   Clear
4:35 PM 82.4 °F 83.4 °F 62.6 °F 51% 29.99 in 10.0 mi North 8.1 mph - N/A   Clear
4:55 PM 82.4 °F 83.4 °F 62.6 °F 51% 29.99 in 10.0 mi North 3.5 mph - N/A   Clear
5:15 PM 82.4 °F 83.4 °F 62.6 °F 51% 29.99 in 10.0 mi North 4.6 mph - N/A   Clear
5:35 PM 82.4 °F 83.4 °F 62.6 °F 51% 29.99 in 10.0 mi North 4.6 mph - N/A   Clear
5:55 PM 82.4 °F 83.4 °F 62.6 °F 51% 29.99 in 10.0 mi Calm Calm - N/A   Clear
6:15 PM 80.6 °F 81.8 °F 62.6 °F 54% 29.99 in 10.0 mi North 3.5 mph - N/A   Clear
6:35 PM 80.6 °F 81.8 °F 62.6 °F 54% 29.99 in 10.0 mi Calm Calm - N/A   Clear
6:55 PM 77.0 °F - 66.2 °F 69% 29.99 in 10.0 mi Calm Calm - N/A   Clear
7:15 PM 73.4 °F - 66.2 °F 78% 29.98 in 10.0 mi Calm Calm - N/A   Clear
7:35 PM 71.6 °F - 64.4 °F 78% 29.98 in 10.0 mi Calm Calm - N/A   Clear
7:55 PM 68.0 °F - 64.4 °F 88% 29.98 in 10.0 mi Calm Calm - N/A   Clear
8:15 PM 68.0 °F - 64.4 °F 88% 29.97 in 10.0 mi Calm Calm - N/A   Clear
8:35 PM 66.2 °F - 62.6 °F 88% 29.98 in 10.0 mi Calm Calm - N/A   Clear
8:55 PM 64.4 °F - 62.6 °F 94% 29.99 in 10.0 mi Calm Calm - N/A   Clear
9:15 PM 64.4 °F - 62.6 °F 94% 29.99 in 10.0 mi Calm Calm - N/A   Clear
9:35 PM 64.4 °F - 62.6 °F 94% 29.99 in 10.0 mi Calm Calm - N/A   Clear
9:55 PM 64.4 °F - 62.6 °F 94% 29.99 in 10.0 mi Calm Calm - N/A   Clear
10:15 PM 64.4 °F - 62.6 °F 94% 29.99 in 10.0 mi Calm Calm - N/A   Clear
10:35 PM 62.6 °F - 62.6 °F 100% 29.99 in 10.0 mi Calm Calm - N/A   Clear
10:55 PM 62.6 °F - 60.8 °F 94% 29.99 in 5.0 mi Calm Calm - N/A   Clear
11:15 PM 62.6 °F - 60.8 °F 94% 29.98 in 7.0 mi Calm Calm - N/A   Clear
11:35 PM 62.6 °F - 60.8 °F 94% 29.98 in 10.0 mi Calm Calm - N/A   Clear
11:55 PM 62.6 °F - 60.8 °F 94% 29.99 in 10.0 mi Calm Calm - N/A   Clear